Location: Jefferson
(30.9666°N, 81.7901°W)
Time: 20:23:58
(UTC+00:00)

ACS3 Solar Sail - Pass Details

Date: 25 September 2024
Orbit: 960 x 1036 km, 97.4° (Epoch: 09 October)

Event Time Altitude Azimuth Distance (km) Brightness Sun altitude
Exits shadow 00:39:17 24° 75° (ENE) 2,010 2.9 -17.7°
Maximum altitude 00:39:46 24° 68° (ENE) 2,001 3.0 -17.8°
Drops below altitude 10° 00:44:41 10° 18° (NNE) 2,841 4.2 -18.8°
Sets 00:47:41 0° 5° (N) 3,793 5.0 -19.4°
